Fukuoka Airport

Airport
ICAO code: 
RJFF
IATA Code: 
FUK
Summary
ICAO Region: 
APAC
Territory: 
Location: 
Hakata, Fukuoka Prefecture
Serving: 
Fukuoka
Elevation: 
30 ft
Coordinates: 
Aerial View: 
33° 35' 10.109" N, 130° 27' 4.329" E
Metar
Observation
RJFF 281430Z AUTO 17012KT 9999 FEW040 28/21 Q1010 NOSIG
Station
Fukuoka Airport
Date/Time
2022-06-28 14:30:00
Wind direction
170°
Wind speed
12 kts
Lowest cloud amount
few clouds
Temperature
28°C
Dew point
21°C
Humidity
65%
QNH
1010 hPa
Weather condition
n/a

Fukuoka Airport, formerly known as Itazuke Air Base, is an international and domestic airport located 1.6 nm east of Hakata, Fukuoka, Japan.

Climatology

Humid Sub-tropical climate (Köppen climate classification Cfa)

Runways

Designator Length Width Surface Rops
16/34 2800 60 ASP Yes/Yes
Airport map: 
Aerial View: 

Accidents and Serious Incidents at or in the vicinity of RJFF

SKYbrary Partners:

Safety knowledge contributed by: